THY21 RKSI-LTFM

Flight info

Callsign THY21
Flight time N/A
Altitude 32000
Route NOPIK2Y NOPIK Y697 ANSIM G597 AGAVO/K0907S0980 A591 IKEKA W4 HCH W200 DOVIV W55 PAMRU W34 VYK B215 OMKAK/K0909S1040 B215 LEBOM W104 VEXEB W47 IDSOT W48 DKO W66 NUKTI B215 FKG A368 SARIN/K0883F340 N161 GOMAL/K0891F360 N161 GASBI/N0471F360 N161 LEKBA/N0476F380 N161 LEYLA N644 ADEKI DCT BADIR DCT LAGAS DCT FOQUS DCT SARPI UM10 HAKAN UW702 GUMRU UT315 NUGBA
Aircraft B77W/H-SDE1E2E3FGHIJ1J3J4J5M1P1P2RWXYZ/LB1D1

Departure

Time N/A
Airport Incheon International Airport (RKSI)

Arrival

Time 2026-05-01 12:05
Airport İstanbul Airport (LTFM)
Time Latitude Longitude Altitude Speed Heading
2026-05-01 07:23 47.73764 71.67468 35880 ft 455 kts 271°
2026-05-01 07:24 47.74318 71.53404 35886 ft 454 kts 271°
2026-05-01 07:24 47.74688 71.44100 35869 ft 454 kts 271°
2026-05-01 07:25 47.75055 71.34745 35872 ft 453 kts 271°
2026-05-01 07:25 47.75415 71.25384 35864 ft 453 kts 271°
2026-05-01 07:26 47.75767 71.16037 35868 ft 453 kts 270°
2026-05-01 07:26 47.76110 71.06690 35862 ft 453 kts 270°
2026-05-01 07:27 47.76446 70.97345 35863 ft 453 kts 270°
2026-05-01 07:27 47.76774 70.87999 35861 ft 453 kts 270°
2026-05-01 07:28 47.77093 70.78713 35858 ft 453 kts 270°
2026-05-01 07:28 47.77408 70.69361 35865 ft 453 kts 270°
2026-05-01 07:29 47.77714 70.59990 35859 ft 453 kts 270°
2026-05-01 07:29 47.78012 70.50613 35861 ft 454 kts 270°
2026-05-01 07:30 47.78303 70.41241 35849 ft 454 kts 270°
2026-05-01 07:30 47.78587 70.31868 35855 ft 454 kts 270°
2026-05-01 07:31 47.78864 70.22491 35867 ft 454 kts 270°
2026-05-01 07:32 47.79520 69.99150 35852 ft 451 kts 269°
2026-05-01 07:33 47.79889 69.85196 35855 ft 449 kts 269°
2026-05-01 07:33 47.80240 69.71299 35864 ft 447 kts 269°
2026-05-01 07:34 47.80573 69.57439 35858 ft 446 kts 269°
2026-05-01 07:35 47.80784 69.48239 35861 ft 445 kts 269°
2026-05-01 07:35 47.80989 69.39028 35859 ft 445 kts 269°
2026-05-01 07:36 47.81186 69.29826 35881 ft 445 kts 268°
2026-05-01 07:36 47.81375 69.20675 35868 ft 445 kts 268°
2026-05-01 07:37 47.81646 69.06880 35885 ft 444 kts 268°
2026-05-01 07:37 47.81817 68.97689 35872 ft 444 kts 268°
2026-05-01 07:38 47.81982 68.88519 35874 ft 443 kts 268°
2026-05-01 07:39 47.81546 68.74888 35876 ft 437 kts 259°
2026-05-01 07:39 47.80277 68.61546 35877 ft 435 kts 259°
2026-05-01 07:40 47.79447 68.52642 35881 ft 433 kts 259°
2026-05-01 07:40 47.78621 68.43770 35891 ft 433 kts 259°
2026-05-01 07:41 47.77790 68.34913 35890 ft 432 kts 259°
2026-05-01 07:42 47.76530 68.21639 35886 ft 432 kts 258°
2026-05-01 07:42 47.75682 68.12798 35885 ft 432 kts 258°
2026-05-01 07:43 47.74833 68.04016 35883 ft 432 kts 258°
2026-05-01 07:43 47.73538 67.90751 35879 ft 433 kts 258°
2026-05-01 07:44 47.71675 67.73076 35883 ft 431 kts 255°
2026-05-01 07:45 47.70385 67.64380 35887 ft 431 kts 255°
2026-05-01 07:45 47.69076 67.55691 35897 ft 431 kts 254°
2026-05-01 07:46 47.67782 67.47063 35877 ft 430 kts 254°
2026-05-01 07:47 47.65836 67.34097 35901 ft 428 kts 254°
2026-05-01 07:47 47.64537 67.25495 35891 ft 427 kts 254°
2026-05-01 07:48 47.62577 67.12603 35895 ft 427 kts 253°
2026-05-01 07:48 47.61266 67.04040 35895 ft 426 kts 253°
2026-05-01 07:49 47.59287 66.91205 35907 ft 425 kts 253°
2026-05-01 07:50 47.57963 66.82664 35903 ft 425 kts 253°
2026-05-01 07:50 47.55955 66.69830 35916 ft 427 kts 252°
2026-05-01 07:51 47.54551 66.61271 35916 ft 428 kts 252°
2026-05-01 07:52 47.52421 66.48461 35914 ft 429 kts 252°
2026-05-01 07:52 47.50995 66.39899 35939 ft 429 kts 252°
2026-05-01 07:53 47.48840 66.27008 35924 ft 431 kts 251°
2026-05-01 07:53 47.47391 66.18402 35924 ft 431 kts 251°
2026-05-01 07:55 47.43752 65.96963 35944 ft 432 kts 251°
2026-05-01 07:56 47.40093 65.75400 35936 ft 433 kts 251°
2026-05-01 07:57 47.37945 65.62423 35942 ft 434 kts 251°
2026-05-01 07:58 47.35051 65.45173 35938 ft 435 kts 251°
2026-05-01 07:59 47.32108 65.27817 35955 ft 436 kts 251°
2026-05-01 08:00 47.27637 65.01768 35958 ft 438 kts 252°
2026-05-01 08:01 47.24638 64.84428 35959 ft 439 kts 252°
2026-05-01 08:02 47.22365 64.71367 35971 ft 439 kts 252°
2026-05-01 08:03 47.20077 64.58309 35966 ft 440 kts 252°
2026-05-01 08:03 47.17773 64.45270 35968 ft 440 kts 252°
2026-05-01 08:04 47.14673 64.27859 35973 ft 440 kts 252°
2026-05-01 08:05 47.12346 64.14885 35973 ft 440 kts 252°
2026-05-01 08:06 47.09994 64.01864 35980 ft 440 kts 252°
2026-05-01 08:07 47.07091 63.85924 35982 ft 440 kts 252°
2026-05-01 08:08 47.04447 63.71529 35983 ft 440 kts 252°
2026-05-01 08:09 47.01515 63.55693 35991 ft 440 kts 252°
2026-05-01 08:09 46.99903 63.47044 35993 ft 440 kts 252°
2026-05-01 08:10 46.96660 63.29758 35997 ft 440 kts 252°
2026-05-01 08:11 46.93387 63.12480 36001 ft 441 kts 252°
2026-05-01 08:12 46.90914 62.99525 36005 ft 441 kts 252°
2026-05-01 08:13 46.88425 62.86576 36020 ft 441 kts 252°
2026-05-01 08:13 46.85921 62.73632 36006 ft 441 kts 252°
2026-05-01 08:14 46.84247 62.65019 36010 ft 440 kts 252°
2026-05-01 08:14 46.82576 62.56471 36019 ft 440 kts 252°
2026-05-01 08:15 46.80043 62.43605 36023 ft 439 kts 252°
2026-05-01 08:16 46.78349 62.35040 36023 ft 439 kts 252°
2026-05-01 08:16 46.76652 62.26497 36024 ft 439 kts 252°
2026-05-01 08:17 46.74947 62.17944 36022 ft 439 kts 252°
2026-05-01 08:17 46.73239 62.09419 36033 ft 438 kts 252°
2026-05-01 08:18 46.71522 62.00884 36026 ft 438 kts 252°
2026-05-01 08:19 46.68075 61.83858 36039 ft 438 kts 252°
2026-05-01 08:19 46.66342 61.75354 36041 ft 438 kts 252°
2026-05-01 08:20 46.64601 61.66850 36053 ft 438 kts 252°
2026-05-01 08:20 46.62868 61.58415 36044 ft 437 kts 252°
2026-05-01 08:21 46.61119 61.49942 36054 ft 436 kts 252°
2026-05-01 08:21 46.59369 61.41497 36054 ft 436 kts 252°
2026-05-01 08:22 46.57612 61.33057 36058 ft 435 kts 252°
2026-05-01 08:22 46.55854 61.24642 36059 ft 435 kts 252°
2026-05-01 08:23 46.54088 61.16228 36063 ft 435 kts 252°
2026-05-01 08:23 46.52330 61.07888 36064 ft 435 kts 251°
2026-05-01 08:24 46.50554 60.99494 36076 ft 435 kts 251°
2026-05-01 08:24 46.48772 60.91108 36077 ft 435 kts 251°
2026-05-01 08:25 46.46984 60.82727 36073 ft 435 kts 251°
2026-05-01 08:25 46.45191 60.74357 36078 ft 434 kts 251°
2026-05-01 08:26 46.43392 60.65992 36074 ft 434 kts 251°
2026-05-01 08:26 46.41590 60.57647 36075 ft 434 kts 251°
2026-05-01 08:27 46.39783 60.49315 36077 ft 433 kts 251°
2026-05-01 08:27 46.37971 60.40991 36079 ft 433 kts 251°
2026-05-01 08:28 46.36151 60.32663 36082 ft 433 kts 251°
2026-05-01 08:28 46.34329 60.24357 36080 ft 433 kts 251°
2026-05-01 08:29 46.30681 60.07833 36089 ft 434 kts 251°
2026-05-01 08:30 46.28836 59.99518 36088 ft 434 kts 251°
2026-05-01 08:30 46.26985 59.91216 36093 ft 434 kts 251°
2026-05-01 08:31 46.25129 59.82917 36092 ft 434 kts 251°
2026-05-01 08:31 46.23279 59.74675 36094 ft 434 kts 251°
2026-05-01 08:32 46.21403 59.66388 36100 ft 434 kts 251°
2026-05-01 08:32 46.19507 59.58095 36100 ft 434 kts 251°
2026-05-01 08:33 46.17611 59.49828 36106 ft 434 kts 251°
2026-05-01 08:33 46.15710 59.41564 36104 ft 434 kts 251°
2026-05-01 08:34 46.13805 59.33306 36130 ft 434 kts 251°
2026-05-01 08:34 46.11893 59.25054 36121 ft 434 kts 251°
2026-05-01 08:35 46.09989 59.16862 36113 ft 433 kts 251°
2026-05-01 08:35 46.08070 59.08642 36106 ft 432 kts 251°
2026-05-01 08:36 46.06147 59.00433 36108 ft 432 kts 251°
2026-05-01 08:36 46.04223 58.92250 36128 ft 431 kts 251°
2026-05-01 08:37 46.02294 58.84076 36125 ft 431 kts 251°
2026-05-01 08:37 46.00357 58.75901 36115 ft 431 kts 251°
2026-05-01 08:38 45.98416 58.67736 36131 ft 432 kts 251°
2026-05-01 08:38 45.96464 58.59558 36128 ft 432 kts 251°
2026-05-01 08:39 45.94506 58.51383 36136 ft 433 kts 251°
2026-05-01 08:39 45.92540 58.43205 36149 ft 433 kts 251°
2026-05-01 08:40 45.89576 58.30935 36142 ft 434 kts 251°
2026-05-01 08:40 45.87606 58.22814 36141 ft 434 kts 251°
2026-05-01 08:41 45.85615 58.14638 36139 ft 433 kts 250°
2026-05-01 08:41 45.83622 58.06480 36135 ft 433 kts 251°
2026-05-01 08:42 45.81624 57.98333 36150 ft 433 kts 251°
2026-05-01 08:42 45.79620 57.90194 36148 ft 433 kts 250°
2026-05-01 08:43 45.77611 57.82060 36156 ft 433 kts 250°
2026-05-01 08:43 45.75598 57.73931 36156 ft 433 kts 250°
2026-05-01 08:44 45.73588 57.65853 36151 ft 433 kts 250°
2026-05-01 08:44 45.71558 57.57728 36161 ft 433 kts 250°
2026-05-01 08:45 45.69527 57.49619 36165 ft 433 kts 250°
2026-05-01 08:45 45.67489 57.41507 36168 ft 433 kts 250°
2026-05-01 08:46 45.65449 57.33418 36161 ft 433 kts 250°
2026-05-01 08:46 45.63403 57.25329 36163 ft 433 kts 250°
2026-05-01 08:47 45.61351 57.17246 36172 ft 433 kts 250°
2026-05-01 08:47 45.59294 57.09169 36174 ft 433 kts 250°
2026-05-01 08:48 45.57241 57.01141 36167 ft 433 kts 250°
2026-05-01 08:48 45.55172 56.93073 36172 ft 433 kts 250°
2026-05-01 08:49 45.53096 56.85013 36168 ft 433 kts 250°
2026-05-01 08:49 45.51015 56.76953 36166 ft 433 kts 250°
2026-05-01 08:50 45.48930 56.68910 36173 ft 433 kts 250°
2026-05-01 08:50 45.46839 56.60873 36178 ft 432 kts 250°
2026-05-01 08:51 45.44753 56.52881 36176 ft 432 kts 250°
2026-05-01 08:51 45.42655 56.44869 36178 ft 432 kts 250°
2026-05-01 08:52 45.40548 56.36853 36177 ft 432 kts 250°
2026-05-01 08:52 45.38436 56.28842 36174 ft 432 kts 250°
2026-05-01 08:53 45.36318 56.20836 36178 ft 433 kts 250°
2026-05-01 08:53 45.34193 56.12831 36174 ft 433 kts 250°
2026-05-01 08:54 45.32060 56.04825 36186 ft 433 kts 250°
2026-05-01 08:54 45.29918 55.96810 36186 ft 433 kts 250°
2026-05-01 08:55 45.27772 55.88808 36204 ft 433 kts 250°
2026-05-01 08:55 45.25621 55.80816 36173 ft 433 kts 250°
2026-05-01 08:56 45.23483 55.72894 36196 ft 432 kts 250°
2026-05-01 08:56 45.21332 55.64954 36193 ft 431 kts 250°
2026-05-01 08:57 45.19178 55.57028 36191 ft 430 kts 249°
2026-05-01 08:57 45.17025 55.49127 36188 ft 429 kts 249°
2026-05-01 08:58 45.15229 55.42559 36190 ft 429 kts 249°
2026-05-01 08:58 45.13068 55.34675 36190 ft 429 kts 249°
2026-05-01 08:59 45.10898 55.26785 36187 ft 429 kts 249°
2026-05-01 08:59 45.07634 55.18120 36192 ft 432 kts 236°
2026-05-01 09:00 45.04397 55.12642 36175 ft 436 kts 227°
2026-05-01 09:00 44.99946 55.06882 36190 ft 437 kts 225°
2026-05-01 09:01 44.95432 55.01132 36178 ft 437 kts 225°
2026-05-01 09:01 44.90930 54.95348 36181 ft 438 kts 225°
2026-05-01 09:02 44.86429 54.89543 36187 ft 439 kts 225°
2026-05-01 09:02 44.81915 54.83731 36183 ft 440 kts 225°
2026-05-01 09:03 44.77386 54.77914 36186 ft 440 kts 225°
2026-05-01 09:03 44.72862 54.72114 36185 ft 440 kts 225°
2026-05-01 09:04 44.68324 54.66299 36179 ft 440 kts 226°
2026-05-01 09:04 44.64299 54.59912 36180 ft 436 kts 236°
2026-05-01 09:05 44.60881 54.52967 36182 ft 434 kts 237°
2026-05-01 09:05 44.57430 54.45999 36184 ft 434 kts 237°
2026-05-01 09:06 44.53970 54.39062 36179 ft 434 kts 237°
2026-05-01 09:06 44.50505 54.32139 36182 ft 434 kts 237°
2026-05-01 09:07 44.47036 54.25228 36163 ft 434 kts 237°
2026-05-01 09:07 44.43561 54.18322 36176 ft 434 kts 237°
2026-05-01 09:08 44.40076 54.11409 36185 ft 435 kts 236°
2026-05-01 09:08 44.36606 54.04545 36168 ft 435 kts 236°
2026-05-01 09:09 44.33105 53.97635 36179 ft 436 kts 236°
2026-05-01 09:09 44.29596 53.90725 36176 ft 436 kts 236°
2026-05-01 09:10 44.26079 53.83817 36177 ft 437 kts 236°
2026-05-01 09:10 44.22553 53.76907 36176 ft 437 kts 236°
2026-05-01 09:11 44.19027 53.70014 36175 ft 437 kts 236°
2026-05-01 09:11 44.15497 53.63129 36174 ft 437 kts 236°
2026-05-01 09:12 44.11965 53.56255 36174 ft 436 kts 236°
2026-05-01 09:12 44.08426 53.49384 36174 ft 436 kts 236°
2026-05-01 09:13 44.04908 53.42571 36174 ft 436 kts 236°
2026-05-01 09:13 44.01371 53.35736 36173 ft 436 kts 236°
2026-05-01 09:14 43.97821 53.28893 36172 ft 436 kts 236°
2026-05-01 09:14 43.94269 53.22059 36170 ft 436 kts 236°
2026-05-01 09:15 43.90714 53.15234 36170 ft 436 kts 236°
2026-05-01 09:15 43.87153 53.08418 36167 ft 436 kts 236°
2026-05-01 09:16 43.83594 53.01615 36168 ft 436 kts 236°
2026-05-01 09:17 43.78256 52.91434 36166 ft 436 kts 236°
2026-05-01 09:17 43.72932 52.81311 36162 ft 435 kts 236°
2026-05-01 09:18 43.67580 52.71168 36159 ft 435 kts 236°
2026-05-01 09:19 43.62208 52.61064 36162 ft 435 kts 235°
2026-05-01 09:20 43.56813 52.50999 36155 ft 436 kts 235°
2026-05-01 09:21 43.49587 52.37555 36158 ft 436 kts 235°
2026-05-01 09:21 43.44172 52.27516 36159 ft 437 kts 235°
2026-05-01 09:22 43.36919 52.14123 36150 ft 436 kts 235°
2026-05-01 09:23 43.31471 52.04105 36152 ft 436 kts 235°
2026-05-01 09:24 43.26014 51.94102 36152 ft 436 kts 235°
2026-05-01 09:25 43.18731 51.80807 36155 ft 436 kts 235°
2026-05-01 09:26 43.13282 51.70898 36158 ft 436 kts 234°
2026-05-01 09:26 43.07803 51.60967 36156 ft 435 kts 234°
2026-05-01 09:27 43.02318 51.51058 36162 ft 435 kts 234°
2026-05-01 09:28 42.98660 51.44470 36158 ft 435 kts 234°
2026-05-01 09:28 42.94996 51.37884 36155 ft 435 kts 234°
2026-05-01 09:29 42.89498 51.28029 36160 ft 435 kts 234°
2026-05-01 09:30 42.84006 51.18219 36154 ft 435 kts 234°
2026-05-01 09:30 42.78486 51.08388 36162 ft 436 kts 234°
2026-05-01 09:31 42.74788 51.01822 36157 ft 437 kts 234°
2026-05-01 09:32 42.69217 50.91957 36152 ft 438 kts 234°
2026-05-01 09:32 42.63630 50.82097 36152 ft 439 kts 234°
2026-05-01 09:33 42.59929 50.75582 36143 ft 439 kts 234°
2026-05-01 09:34 42.54334 50.65760 36144 ft 438 kts 234°
2026-05-01 09:34 42.48727 50.55948 36141 ft 438 kts 234°
2026-05-01 09:35 42.43135 50.46187 36136 ft 438 kts 234°
2026-05-01 09:36 42.39558 50.39525 36139 ft 438 kts 236°
2026-05-01 09:36 42.36051 50.32790 36125 ft 438 kts 236°
2026-05-01 09:37 42.32527 50.26075 36125 ft 438 kts 236°
2026-05-01 09:37 42.27203 50.16035 36122 ft 438 kts 236°
2026-05-01 09:38 42.21865 50.06024 36111 ft 438 kts 235°
2026-05-01 09:39 42.16513 49.96016 36112 ft 438 kts 235°
2026-05-01 09:39 42.12940 49.89353 36105 ft 439 kts 235°
2026-05-01 09:40 42.07590 49.79402 36094 ft 439 kts 235°
2026-05-01 09:41 42.04000 49.72742 36094 ft 439 kts 235°
2026-05-01 09:41 41.98615 49.62782 36083 ft 439 kts 235°
2026-05-01 09:42 41.95017 49.56145 36077 ft 439 kts 235°
2026-05-01 09:43 41.87794 49.42863 36062 ft 441 kts 235°
2026-05-01 09:43 41.84168 49.36214 36063 ft 441 kts 235°
2026-05-01 09:44 41.79379 49.27337 36055 ft 441 kts 237°
2026-05-01 09:45 41.75433 49.19319 36044 ft 441 kts 238°
2026-05-01 09:45 41.70944 49.10184 36041 ft 441 kts 237°
2026-05-01 09:46 41.67540 49.03353 36045 ft 441 kts 237°
2026-05-01 09:46 41.64124 48.96529 36045 ft 442 kts 237°
2026-05-01 09:47 41.60702 48.89707 36040 ft 442 kts 237°
2026-05-01 09:47 41.57280 48.82896 36041 ft 442 kts 237°
2026-05-01 09:48 41.53868 48.76118 36039 ft 442 kts 237°
2026-05-01 09:48 41.50335 48.69397 36040 ft 442 kts 234°
2026-05-01 09:49 41.46587 48.62884 36033 ft 443 kts 233°
2026-05-01 09:49 41.42870 48.56328 36033 ft 443 kts 234°
2026-05-01 09:50 41.39224 48.49719 36036 ft 443 kts 235°
2026-05-01 09:50 41.35619 48.43059 36029 ft 443 kts 234°
2026-05-01 09:51 41.32014 48.36425 36039 ft 443 kts 234°
2026-05-01 09:51 41.28411 48.29832 36049 ft 443 kts 234°
2026-05-01 09:52 41.24783 48.23212 36041 ft 443 kts 234°
2026-05-01 09:52 41.21154 48.16602 36064 ft 443 kts 234°
2026-05-01 09:53 41.17524 48.10005 36075 ft 442 kts 234°
2026-05-01 09:53 41.13901 48.03417 36090 ft 440 kts 236°
2026-05-01 09:54 41.12512 47.99826 36095 ft 438 kts 251°
2026-05-01 09:54 41.11854 47.95881 36099 ft 441 kts 262°
2026-05-01 09:54 41.11777 47.91803 36090 ft 444 kts 274°
2026-05-01 09:54 41.12355 47.87771 36124 ft 445 kts 279°
2026-05-01 09:55 41.13711 47.79737 36115 ft 447 kts 279°
2026-05-01 09:55 41.15022 47.71702 36108 ft 449 kts 279°
2026-05-01 09:56 41.16302 47.63583 36110 ft 449 kts 278°
2026-05-01 09:56 41.17559 47.55462 36111 ft 448 kts 278°
2026-05-01 09:57 41.18810 47.47352 36118 ft 448 kts 278°
2026-05-01 09:57 41.20051 47.39266 36118 ft 446 kts 278°
2026-05-01 09:58 41.21285 47.31192 36169 ft 446 kts 278°
2026-05-01 09:58 41.22511 47.23120 36142 ft 446 kts 278°
2026-05-01 09:59 41.23725 47.15099 36160 ft 446 kts 278°
2026-05-01 09:59 41.24943 47.07011 36167 ft 446 kts 278°
2026-05-01 10:00 41.26153 46.98927 36176 ft 446 kts 278°
2026-05-01 10:00 41.27358 46.90833 36184 ft 446 kts 278°
2026-05-01 10:01 41.28558 46.82746 36172 ft 446 kts 278°
2026-05-01 10:01 41.29743 46.74714 36174 ft 445 kts 278°
2026-05-01 10:02 41.30893 46.66621 36176 ft 445 kts 277°
2026-05-01 10:02 41.32018 46.58506 36182 ft 446 kts 277°
2026-05-01 10:03 41.33140 46.50388 36175 ft 446 kts 277°
2026-05-01 10:03 41.34262 46.42260 36163 ft 447 kts 277°
2026-05-01 10:04 41.35381 46.34126 36152 ft 447 kts 277°
2026-05-01 10:04 41.36493 46.25992 36149 ft 447 kts 277°
2026-05-01 10:05 41.37598 46.17867 36156 ft 447 kts 277°
2026-05-01 10:05 41.38698 46.09728 36145 ft 447 kts 277°
2026-05-01 10:06 41.39794 46.01579 36138 ft 447 kts 277°
2026-05-01 10:06 41.40884 45.93425 36144 ft 447 kts 277°
2026-05-01 10:07 41.41969 45.85267 36135 ft 447 kts 277°
2026-05-01 10:07 41.43047 45.77111 36133 ft 447 kts 277°
2026-05-01 10:08 41.44657 45.64850 36127 ft 447 kts 277°
2026-05-01 10:09 41.45723 45.56672 36117 ft 447 kts 277°
2026-05-01 10:09 41.46781 45.48507 36111 ft 447 kts 277°
2026-05-01 10:10 41.47829 45.40378 36121 ft 447 kts 277°
2026-05-01 10:10 41.49063 45.28075 36117 ft 446 kts 273°
2026-05-01 10:11 41.49712 45.19842 36112 ft 446 kts 273°
2026-05-01 10:11 41.50365 45.11619 36113 ft 446 kts 274°
2026-05-01 10:12 41.50914 45.04780 36126 ft 446 kts 273°
2026-05-01 10:13 41.52013 44.91054 36128 ft 445 kts 273°
2026-05-01 10:13 41.52661 44.82849 36136 ft 445 kts 273°
2026-05-01 10:14 41.53618 44.70585 36114 ft 444 kts 273°
2026-05-01 10:14 41.54251 44.62392 36117 ft 443 kts 273°
2026-05-01 10:15 41.54875 44.54216 36106 ft 442 kts 273°
2026-05-01 10:15 41.55495 44.46030 36106 ft 442 kts 273°
2026-05-01 10:16 41.56107 44.37870 36099 ft 442 kts 273°
2026-05-01 10:17 41.57018 44.25600 36100 ft 443 kts 273°
2026-05-01 10:17 41.57269 44.13352 36086 ft 441 kts 267°
2026-05-01 10:18 41.57266 44.01082 36054 ft 440 kts 267°
2026-05-01 10:19 41.57272 43.92912 36062 ft 439 kts 268°
2026-05-01 10:19 41.57278 43.84753 36039 ft 439 kts 267°
2026-05-01 10:20 41.57278 43.72524 36030 ft 440 kts 267°
2026-05-01 10:20 41.57270 43.64344 36028 ft 441 kts 267°
2026-05-01 10:21 41.57247 43.52014 36009 ft 444 kts 267°
2026-05-01 10:22 41.57211 43.39681 35985 ft 445 kts 267°
2026-05-01 10:23 41.57162 43.27293 35979 ft 445 kts 267°
2026-05-01 10:23 41.57099 43.14912 35961 ft 443 kts 267°
2026-05-01 10:24 41.56997 42.98493 35956 ft 440 kts 267°
2026-05-01 10:25 41.56869 42.82112 36159 ft 444 kts 266°
2026-05-01 10:26 41.56834 42.78006 36624 ft 441 kts 266°
2026-05-01 10:26 41.56797 42.73922 36982 ft 440 kts 266°
2026-05-01 10:26 41.56720 42.65748 37638 ft 439 kts 266°
2026-05-01 10:27 41.56637 42.57618 37949 ft 444 kts 266°
2026-05-01 10:28 41.56500 42.45284 37953 ft 439 kts 266°
2026-05-01 10:28 41.56354 42.33131 37949 ft 434 kts 266°
2026-05-01 10:29 41.56190 42.21031 37948 ft 435 kts 266°
2026-05-01 10:30 41.55959 42.04822 37958 ft 439 kts 266°
2026-05-01 10:31 41.55701 41.88531 37985 ft 442 kts 266°
2026-05-01 10:32 41.55489 41.76166 37962 ft 445 kts 265°
2026-05-01 10:33 41.55188 41.59661 37954 ft 443 kts 265°
2026-05-01 10:34 41.54975 41.48693 37965 ft 441 kts 265°
2026-05-01 10:34 41.55104 41.40556 37984 ft 442 kts 271°
2026-05-01 10:35 41.55853 41.28300 37967 ft 441 kts 271°
2026-05-01 10:35 41.56331 41.20133 37968 ft 441 kts 271°
2026-05-01 10:36 41.57020 41.07870 37956 ft 441 kts 271°
2026-05-01 10:37 41.57467 40.99735 37960 ft 442 kts 271°
2026-05-01 10:37 41.58134 40.87446 37961 ft 442 kts 271°
2026-05-01 10:38 41.58571 40.79246 37959 ft 443 kts 271°
2026-05-01 10:38 41.59003 40.71041 37954 ft 443 kts 271°
2026-05-01 10:39 41.59430 40.62826 37953 ft 443 kts 270°
2026-05-01 10:39 41.59848 40.54611 37956 ft 443 kts 270°
2026-05-01 10:40 41.60259 40.46372 37954 ft 443 kts 270°
2026-05-01 10:40 41.60662 40.38209 37961 ft 442 kts 270°
2026-05-01 10:41 41.61060 40.30012 37963 ft 442 kts 270°
2026-05-01 10:42 41.61647 40.17736 37959 ft 441 kts 270°
2026-05-01 10:42 41.62030 40.09551 37967 ft 441 kts 270°
2026-05-01 10:43 41.62407 40.01380 37966 ft 440 kts 270°
2026-05-01 10:43 41.62779 39.93208 37981 ft 440 kts 270°
2026-05-01 10:44 41.63142 39.85080 37981 ft 441 kts 270°
2026-05-01 10:44 41.63503 39.76894 38001 ft 441 kts 270°
2026-05-01 10:45 41.63858 39.68703 37989 ft 441 kts 270°
2026-05-01 10:45 41.64208 39.60512 37985 ft 441 kts 270°
2026-05-01 10:46 41.64552 39.52332 37990 ft 440 kts 270°
2026-05-01 10:46 41.64894 39.44158 37992 ft 440 kts 270°
2026-05-01 10:47 41.65228 39.36040 38010 ft 440 kts 270°
2026-05-01 10:47 41.65559 39.27865 37998 ft 440 kts 270°
2026-05-01 10:48 41.65884 39.19686 37990 ft 440 kts 270°
2026-05-01 10:48 41.66202 39.11523 37988 ft 439 kts 270°
2026-05-01 10:49 41.66515 39.03357 37985 ft 439 kts 270°
2026-05-01 10:49 41.66821 38.95202 38004 ft 439 kts 269°
2026-05-01 10:50 41.67122 38.87045 37993 ft 439 kts 269°
2026-05-01 10:50 41.67417 38.78896 38004 ft 439 kts 269°
2026-05-01 10:51 41.67706 38.70730 37998 ft 439 kts 269°
2026-05-01 10:51 41.67989 38.62574 37996 ft 439 kts 269°
2026-05-01 10:52 41.68267 38.54417 38019 ft 439 kts 269°
2026-05-01 10:52 41.68537 38.46313 38005 ft 439 kts 269°
2026-05-01 10:53 41.68803 38.38154 38000 ft 439 kts 269°
2026-05-01 10:53 41.69063 38.29999 38008 ft 439 kts 269°
2026-05-01 10:54 41.69318 38.21842 38013 ft 439 kts 269°
2026-05-01 10:54 41.69567 38.13673 38020 ft 439 kts 269°
2026-05-01 10:55 41.69810 38.05514 38016 ft 439 kts 269°
2026-05-01 10:55 41.70047 37.97362 38001 ft 438 kts 269°
2026-05-01 10:56 41.70278 37.89221 38002 ft 438 kts 269°
2026-05-01 10:56 41.70503 37.81086 38009 ft 437 kts 269°
2026-05-01 10:57 41.70723 37.72948 38038 ft 437 kts 269°
2026-05-01 10:57 41.70937 37.64806 38015 ft 437 kts 269°
2026-05-01 10:58 41.71139 37.56681 38015 ft 437 kts 269°
2026-05-01 10:58 41.71334 37.48544 38017 ft 437 kts 268°
2026-05-01 10:59 41.71524 37.40405 38018 ft 438 kts 268°
2026-05-01 10:59 41.71708 37.32316 38018 ft 438 kts 268°
2026-05-01 11:00 41.71888 37.24167 38024 ft 438 kts 268°
2026-05-01 11:00 41.72062 37.16020 38022 ft 438 kts 268°
2026-05-01 11:01 41.72231 37.07881 38031 ft 437 kts 268°
2026-05-01 11:01 41.72393 36.99746 38026 ft 437 kts 268°
2026-05-01 11:02 41.72550 36.91605 38030 ft 437 kts 268°
2026-05-01 11:02 41.72700 36.83472 38034 ft 437 kts 268°
2026-05-01 11:03 41.72846 36.75334 38027 ft 437 kts 268°
2026-05-01 11:03 41.72985 36.67210 38027 ft 437 kts 268°
2026-05-01 11:04 41.73119 36.59089 38029 ft 436 kts 268°
2026-05-01 11:04 41.73246 36.51027 38036 ft 435 kts 268°
2026-05-01 11:05 41.73367 36.42929 38049 ft 435 kts 268°
2026-05-01 11:05 41.73483 36.34832 38059 ft 434 kts 268°
2026-05-01 11:06 41.73593 36.26718 38044 ft 436 kts 268°
2026-05-01 11:06 41.73698 36.18607 38036 ft 435 kts 268°
2026-05-01 11:07 41.73844 36.06544 38041 ft 432 kts 268°
2026-05-01 11:07 41.73934 35.98502 38041 ft 431 kts 267°
2026-05-01 11:08 41.74018 35.90465 38048 ft 431 kts 267°
2026-05-01 11:09 41.74133 35.78388 38040 ft 433 kts 267°
2026-05-01 11:09 41.74203 35.70335 38044 ft 432 kts 267°
2026-05-01 11:10 41.74298 35.58242 38059 ft 433 kts 267°
2026-05-01 11:10 41.74354 35.50224 38049 ft 434 kts 267°
2026-05-01 11:11 41.74405 35.42148 38055 ft 434 kts 267°
2026-05-01 11:11 41.74450 35.34067 38053 ft 434 kts 267°
2026-05-01 11:12 41.74489 35.25967 38057 ft 435 kts 267°
2026-05-01 11:12 41.74523 35.17860 38071 ft 436 kts 267°
2026-05-01 11:13 41.74551 35.09711 38047 ft 438 kts 267°
2026-05-01 11:13 41.74574 35.01556 38044 ft 437 kts 267°
2026-05-01 11:14 41.74591 34.93421 38054 ft 436 kts 266°
2026-05-01 11:14 41.74602 34.85347 38054 ft 436 kts 266°
2026-05-01 11:15 41.74608 34.77243 38042 ft 435 kts 267°
2026-05-01 11:15 41.74608 34.69152 38043 ft 433 kts 266°
2026-05-01 11:16 41.74603 34.61091 38062 ft 432 kts 266°
2026-05-01 11:16 41.74592 34.53043 38056 ft 432 kts 266°
2026-05-01 11:17 41.74577 34.45005 38051 ft 431 kts 266°
2026-05-01 11:17 41.74557 34.36954 38056 ft 433 kts 266°
2026-05-01 11:18 41.74531 34.28931 38070 ft 434 kts 266°
2026-05-01 11:18 41.74499 34.20836 38057 ft 434 kts 266°
2026-05-01 11:19 41.74468 34.14067 38077 ft 434 kts 266°
2026-05-01 11:19 41.74427 34.06038 38067 ft 434 kts 266°
2026-05-01 11:20 41.74379 33.97966 38101 ft 433 kts 266°
2026-05-01 11:20 41.74327 33.89899 38090 ft 433 kts 266°
2026-05-01 11:21 41.74269 33.81834 38106 ft 433 kts 266°
2026-05-01 11:21 41.74204 33.73764 38092 ft 433 kts 266°
2026-05-01 11:22 41.74134 33.65705 38102 ft 432 kts 266°
2026-05-01 11:22 41.74058 33.57655 38111 ft 433 kts 266°
2026-05-01 11:23 41.73977 33.49582 38104 ft 433 kts 266°
2026-05-01 11:23 41.73890 33.41515 38107 ft 433 kts 266°
2026-05-01 11:24 41.73798 33.33505 38115 ft 433 kts 266°
2026-05-01 11:25 41.73649 33.21417 38112 ft 433 kts 266°
2026-05-01 11:25 41.73489 33.09315 38115 ft 433 kts 266°
2026-05-01 11:26 41.73323 32.97206 38125 ft 434 kts 266°
2026-05-01 11:27 41.73223 32.89124 38131 ft 434 kts 266°
2026-05-01 11:27 41.73117 32.81061 38125 ft 433 kts 266°
2026-05-01 11:28 41.73004 32.73039 38141 ft 434 kts 266°
2026-05-01 11:28 41.72887 32.64975 38129 ft 434 kts 266°
2026-05-01 11:29 41.72695 32.52855 38144 ft 434 kts 266°
2026-05-01 11:30 41.72493 32.40713 38129 ft 435 kts 265°
2026-05-01 11:30 41.72327 32.32622 38158 ft 433 kts 263°
2026-05-01 11:31 41.71437 32.24674 38158 ft 431 kts 255°
2026-05-01 11:31 41.70003 32.16880 38147 ft 432 kts 255°
2026-05-01 11:32 41.68573 32.09076 38166 ft 433 kts 255°
2026-05-01 11:32 41.67158 32.01294 38141 ft 434 kts 255°
2026-05-01 11:33 41.65736 31.93473 38143 ft 432 kts 255°
2026-05-01 11:33 41.64314 31.85678 38149 ft 431 kts 255°
2026-05-01 11:34 41.62888 31.77899 38153 ft 431 kts 255°
2026-05-01 11:34 41.61456 31.70123 38151 ft 431 kts 255°
2026-05-01 11:35 41.60019 31.62347 38152 ft 431 kts 255°
2026-05-01 11:35 41.58575 31.54568 38149 ft 432 kts 255°
2026-05-01 11:36 41.57124 31.46772 38154 ft 432 kts 255°
2026-05-01 11:36 41.55757 31.38963 38163 ft 433 kts 259°
2026-05-01 11:37 41.54438 31.31197 38184 ft 427 kts 246°
2026-05-01 11:37 41.52155 31.23831 38179 ft 431 kts 248°
2026-05-01 11:38 41.50059 31.16342 38152 ft 435 kts 250°
2026-05-01 11:38 41.48037 31.08714 38167 ft 436 kts 250°
2026-05-01 11:38 41.47030 31.04871 37630 ft 444 kts 250°
2026-05-01 11:39 41.46007 31.00964 36998 ft 444 kts 250°
2026-05-01 11:39 41.44992 30.97093 36263 ft 441 kts 249°
2026-05-01 11:39 41.43983 30.93259 35547 ft 438 kts 249°
2026-05-01 11:39 41.42971 30.89426 34764 ft 437 kts 248°
2026-05-01 11:40 41.41964 30.85619 33951 ft 435 kts 248°
2026-05-01 11:40 41.40958 30.81828 33022 ft 433 kts 248°
2026-05-01 11:40 41.39957 30.78060 32265 ft 429 kts 247°
2026-05-01 11:40 41.38970 30.74346 31638 ft 422 kts 246°
2026-05-01 11:41 41.37992 30.70673 31043 ft 417 kts 246°
2026-05-01 11:41 41.37026 30.67051 30438 ft 413 kts 246°
2026-05-01 11:41 41.36080 30.63508 29797 ft 409 kts 246°
2026-05-01 11:41 41.35129 30.59961 29163 ft 405 kts 246°
2026-05-01 11:42 41.34188 30.56453 28545 ft 400 kts 246°
2026-05-01 11:42 41.33257 30.52989 27961 ft 395 kts 246°
2026-05-01 11:42 41.32336 30.49563 27356 ft 391 kts 246°
2026-05-01 11:42 41.31422 30.46174 26784 ft 388 kts 247°
2026-05-01 11:43 41.30515 30.42809 26208 ft 385 kts 247°
2026-05-01 11:43 41.29615 30.39477 25660 ft 381 kts 248°
2026-05-01 11:43 41.28722 30.36175 25109 ft 378 kts 248°
2026-05-01 11:44 41.26956 30.29656 24029 ft 372 kts 248°
2026-05-01 11:44 41.26078 30.26422 23422 ft 370 kts 248°
2026-05-01 11:44 41.25207 30.23217 22826 ft 367 kts 249°
2026-05-01 11:44 41.24342 30.20037 22301 ft 364 kts 249°
2026-05-01 11:45 41.23485 30.16892 21756 ft 361 kts 249°
2026-05-01 11:45 41.22633 30.13772 21238 ft 358 kts 250°
2026-05-01 11:45 41.21784 30.10665 20725 ft 356 kts 250°
2026-05-01 11:45 41.20941 30.07582 20214 ft 354 kts 250°
2026-05-01 11:46 41.20101 30.04512 19709 ft 353 kts 250°
2026-05-01 11:46 41.19262 30.01452 19211 ft 352 kts 250°
2026-05-01 11:46 41.18433 29.98431 18720 ft 352 kts 250°
2026-05-01 11:46 41.17597 29.95387 18174 ft 352 kts 251°
2026-05-01 11:47 41.16758 29.92334 17630 ft 351 kts 250°
2026-05-01 11:47 41.15922 29.89300 17113 ft 349 kts 250°
2026-05-01 11:47 41.15090 29.86279 16614 ft 348 kts 250°
2026-05-01 11:47 41.14258 29.83270 16126 ft 347 kts 250°
2026-05-01 11:48 41.13429 29.80269 15637 ft 346 kts 250°
2026-05-01 11:48 41.12602 29.77283 15180 ft 346 kts 250°
2026-05-01 11:48 41.11772 29.74285 14695 ft 345 kts 250°
2026-05-01 11:48 41.10947 29.71308 14229 ft 344 kts 250°
2026-05-01 11:49 41.10118 29.68321 13741 ft 344 kts 250°
2026-05-01 11:49 41.09291 29.65348 13244 ft 343 kts 250°
2026-05-01 11:49 41.08475 29.62419 12763 ft 343 kts 250°
2026-05-01 11:49 41.07644 29.59439 12166 ft 345 kts 250°
2026-05-01 11:50 41.06812 29.56455 11654 ft 345 kts 250°
2026-05-01 11:50 41.05980 29.53476 11180 ft 343 kts 250°
2026-05-01 11:50 41.05154 29.50523 10762 ft 341 kts 250°
2026-05-01 11:50 41.04343 29.47626 10629 ft 330 kts 250°
2026-05-01 11:51 41.03553 29.44807 10474 ft 321 kts 250°
2026-05-01 11:51 41.02785 29.42070 10341 ft 312 kts 250°
2026-05-01 11:51 41.02037 29.39409 10221 ft 305 kts 250°
2026-05-01 11:51 41.01304 29.36800 10082 ft 298 kts 250°
2026-05-01 11:52 41.00586 29.34254 9928 ft 293 kts 250°
2026-05-01 11:52 40.99879 29.31744 9657 ft 290 kts 250°
2026-05-01 11:52 40.99181 29.29268 9308 ft 292 kts 250°
2026-05-01 11:52 40.98471 29.26755 9023 ft 292 kts 250°
2026-05-01 11:53 40.97756 29.24226 8741 ft 292 kts 250°
2026-05-01 11:53 40.97039 29.21692 8424 ft 293 kts 251°
2026-05-01 11:53 40.96318 29.19141 8073 ft 295 kts 250°
2026-05-01 11:53 40.95601 29.16611 7849 ft 292 kts 251°
2026-05-01 11:54 40.94899 29.14134 7718 ft 285 kts 250°
2026-05-01 11:54 40.94183 29.11614 7062 ft 299 kts 251°
2026-05-01 11:54 40.93452 29.09038 6779 ft 298 kts 251°
2026-05-01 11:54 40.92729 29.06498 6606 ft 291 kts 251°
2026-05-01 11:55 40.92036 29.04066 6521 ft 282 kts 251°
2026-05-01 11:55 40.91418 29.01680 6394 ft 265 kts 263°
2026-05-01 11:55 40.91513 28.99337 6177 ft 249 kts 290°
2026-05-01 11:55 40.92036 28.97149 6042 ft 253 kts 292°
2026-05-01 11:56 40.92566 28.94909 5888 ft 257 kts 291°
2026-05-01 11:56 40.93095 28.92650 5743 ft 258 kts 292°
2026-05-01 11:56 40.93629 28.90376 5535 ft 256 kts 292°
2026-05-01 11:56 40.94148 28.88156 5377 ft 250 kts 292°
2026-05-01 11:57 40.94658 28.85978 5233 ft 247 kts 293°
2026-05-01 11:57 40.94995 28.84537 5152 ft 247 kts 293°
2026-05-01 11:57 40.95664 28.81674 5048 ft 241 kts 293°
2026-05-01 11:57 40.96154 28.79572 5005 ft 238 kts 293°
2026-05-01 11:58 40.96644 28.77474 5015 ft 240 kts 293°
2026-05-01 11:58 40.97178 28.75422 4987 ft 228 kts 306°
2026-05-01 11:58 40.99551 28.73598 5015 ft 198 kts 357°
2026-05-01 11:59 41.00928 28.73389 5051 ft 200 kts 359°
2026-05-01 11:59 41.02335 28.73274 5008 ft 204 kts
2026-05-01 11:59 41.03737 28.73216 4827 ft 200 kts
2026-05-01 12:00 41.06476 28.73156 4316 ft 193 kts
2026-05-01 12:00 41.07787 28.73129 4052 ft 184 kts
2026-05-01 12:00 41.10265 28.73082 3548 ft 169 kts
2026-05-01 12:01 41.11420 28.73060 3339 ft 164 kts
2026-05-01 12:01 41.12560 28.73039 3116 ft 163 kts
2026-05-01 12:01 41.13698 28.73018 2902 ft 165 kts
2026-05-01 12:01 41.14865 28.72997 2671 ft 170 kts
2026-05-01 12:02 41.16041 28.72973 2456 ft 166 kts
2026-05-01 12:02 41.17164 28.72950 2180 ft 154 kts
2026-05-01 12:02 41.18182 28.72929 1964 ft 137 kts
2026-05-01 12:02 41.19080 28.72909 1801 ft 124 kts
2026-05-01 12:03 41.19919 28.72895 1690 ft 122 kts
2026-05-01 12:03 41.20787 28.72882 1492 ft 126 kts
2026-05-01 12:03 41.21672 28.72866 1290 ft 127 kts
2026-05-01 12:03 41.22536 28.72843 1104 ft 123 kts
2026-05-01 12:04 41.23396 28.72835 921 ft 125 kts
2026-05-01 12:04 41.24277 28.72811 760 ft 128 kts
2026-05-01 12:04 41.25175 28.72795 581 ft 130 kts
2026-05-01 12:04 41.26056 28.72774 397 ft 124 kts
2026-05-01 12:05 41.26889 28.72759 311 ft 110 kts
2026-05-01 12:05 41.27803 28.72747 285 ft 35 kts
2026-05-01 12:05 41.27969 28.72774 280 ft 22 kts 19°
2026-05-01 12:06 41.28091 28.72854 280 ft 13 kts 28°
2026-05-01 12:06 41.28143 28.72909 279 ft 8 kts 68°
2026-05-01 12:06 41.28130 28.72945 280 ft 7 kts 139°
2026-05-01 12:06 41.28073 28.72966 282 ft 7 kts 177°
2026-05-01 12:07 41.28032 28.72968 284 ft 6 kts 178°
2026-05-01 12:07 41.27992 28.72969 285 ft 6 kts 178°
2026-05-01 12:07 41.27965 28.72970 286 ft 6 kts 179°
2026-05-01 12:07 41.27925 28.72971 287 ft 6 kts 179°
2026-05-01 12:08 41.27885 28.72971 293 ft 6 kts 179°
2026-05-01 12:08 41.27845 28.72972 295 ft 6 kts 179°
2026-05-01 12:08 41.27792 28.72972 296 ft 6 kts 179°
2026-05-01 12:08 41.27765 28.72973 298 ft 6 kts 179°
2026-05-01 12:09 41.27679 28.72974 301 ft 18 kts 179°
2026-05-01 12:09 41.27557 28.72976 304 ft 18 kts 179°
2026-05-01 12:09 41.27435 28.72979 308 ft 18 kts 179°
2026-05-01 12:09 41.27313 28.72982 310 ft 18 kts 179°
2026-05-01 12:10 41.27191 28.72984 309 ft 17 kts 180°
2026-05-01 12:10 41.27056 28.72986 313 ft 6 kts 179°
2026-05-01 12:10 41.27037 28.72986 312 ft 2 kts 179°
2026-05-01 12:11 41.27009 28.72987 314 ft 2 kts 178°
2026-05-01 12:11 41.26993 28.72988 313 ft 4 kts 178°
2026-05-01 12:11 41.26957 28.73014 313 ft 9 kts 121°
2026-05-01 12:12 41.26953 28.73094 312 ft 9 kts 89°
2026-05-01 12:12 41.26954 28.73175 314 ft 9 kts 89°
2026-05-01 12:12 41.26955 28.73257 316 ft 9 kts 89°
2026-05-01 12:12 41.26956 28.73340 317 ft 10 kts 89°
2026-05-01 12:13 41.26957 28.73442 317 ft 13 kts 89°
2026-05-01 12:13 41.26959 28.73571 317 ft 15 kts 89°
2026-05-01 12:13 41.26961 28.73720 317 ft 15 kts 89°
2026-05-01 12:13 41.26962 28.73827 317 ft 9 kts 89°
2026-05-01 12:14 41.26948 28.73860 317 ft 3 kts 143°
2026-05-01 12:14 41.26920 28.73868 318 ft 7 kts 176°
2026-05-01 12:14 41.26854 28.73871 318 ft 9 kts 178°
2026-05-01 12:14 41.26789 28.73872 318 ft 10 kts 179°
2026-05-01 12:15 41.26741 28.73870 318 ft 6 kts 197°
2026-05-01 12:15 41.26727 28.73822 318 ft 6 kts 264°
2026-05-01 12:15 41.26726 28.73776 318 ft 2 kts 269°
2026-05-01 12:15 41.26725 28.73765 318 ft 0 kts 269°